sat.trackr.live / text

‹ back to catalog

STARLINK-31749

NORAD 59631 · 2024-082A

PAYLOAD ACTIVE UNKNOWN

§ Identity

Operator
Country
US
Launch date
2024-05-03
Launch site
AFETR
Launch vehicle
Mass (kg)
RCS (m²)

Purposes: comms

External: N2YO · Heavens-Above · Gunter

§ Orbital elements

Epoch: 2026-05-25T04:15:42.621696Z

Period
94.27 min
Inclination
43.0042°
Eccentricity
0.0001358
Mean motion
15.27595426 rev/d
Perigee alt
482.1 km
Apogee alt
483.9 km
Semi-major
6,861.1 km
B*
-1.1069e-4
RAAN
67.5135°
Arg perigee
269.1105°
Mean anomaly
90.9591°
Rev number
11,671

§ Raw data

STARLINK-317491 59631U 24082A   26145.17757664 -.00003308  00000+0 -11069-3 0  99962 59631  43.0042  67.5135 0001358 269.1105  90.9591 15.27595426116712

JSON: /api/v1/satellites/59631 · /tle

For live sub-satellite position, see the globe view (requires WebGL).

§ Visibility from observer

Set your observer location to see the next 7 days of passes ≥ 10°. The values pass through the URL so the page stays shareable.

No JS? Fill the form by hand. The geolocation button needs JavaScript.